CCAYT SCEL-SAME

Flight info

Callsign CCAYT
Flight time 0h 31m
Altitude 29000
Route N0444F290 ALBA7C ALBAL UT652 ESITO ESIT1Q
Aircraft C25C/M-SDE2E3FGHRWXY/LB1

Departure

Time 2026-04-18 09:06
Airport Comodoro Arturo Merino Benítez International Airport (SCEL)

Arrival

Time 2026-04-18 09:38
Airport Governor Francisco Gabrielli International Airport (SAME)
Time Latitude Longitude Altitude Speed Heading
2026-04-18 08:58 -33.39223 -70.79204 1558 ft 0 kts 360°
2026-04-18 09:02 -33.39210 -70.79192 1564 ft 6 kts 76°
2026-04-18 09:03 -33.39178 -70.79147 1564 ft 12 kts 356°
2026-04-18 09:03 -33.39060 -70.79155 1563 ft 19 kts 357°
2026-04-18 09:03 -33.39021 -70.79049 1564 ft 17 kts 88°
2026-04-18 09:03 -33.38998 -70.78921 1565 ft 15 kts 21°
2026-04-18 09:04 -33.38865 -70.78924 1558 ft 24 kts 358°
2026-04-18 09:04 -33.38689 -70.78933 1558 ft 25 kts 358°
2026-04-18 09:04 -33.38523 -70.78942 1558 ft 24 kts 357°
2026-04-18 09:04 -33.38364 -70.78951 1558 ft 18 kts 357°
2026-04-18 09:05 -33.38335 -70.78893 1558 ft 16 kts 148°
2026-04-18 09:05 -33.38458 -70.78797 1558 ft 24 kts 147°
2026-04-18 09:05 -33.38597 -70.78688 1558 ft 23 kts 147°
2026-04-18 09:05 -33.38723 -70.78611 1557 ft 19 kts 178°
2026-04-18 09:06 -33.39253 -70.78582 1559 ft 137 kts 178°
2026-04-18 09:06 -33.40349 -70.78505 2211 ft 169 kts 176°
2026-04-18 09:06 -33.41570 -70.78433 3187 ft 182 kts 178°
2026-04-18 09:06 -33.42875 -70.78356 4121 ft 196 kts 178°
2026-04-18 09:07 -33.44312 -70.78273 5060 ft 221 kts 177°
2026-04-18 09:07 -33.45936 -70.78177 6007 ft 244 kts 178°
2026-04-18 09:07 -33.47694 -70.78069 6945 ft 263 kts 178°
2026-04-18 09:07 -33.49595 -70.77961 7877 ft 281 kts 178°
2026-04-18 09:08 -33.51614 -70.77836 8846 ft 296 kts 179°
2026-04-18 09:08 -33.53690 -70.77716 9882 ft 307 kts 179°
2026-04-18 09:08 -33.55826 -70.77354 10767 ft 323 kts 164°
2026-04-18 09:08 -33.57809 -70.75823 11047 ft 355 kts 132°
2026-04-18 09:09 -33.59020 -70.73220 11733 ft 359 kts 103°
2026-04-18 09:09 -33.59487 -70.70297 12619 ft 361 kts 94°
2026-04-18 09:09 -33.59789 -70.67263 13446 ft 369 kts 93°
2026-04-18 09:09 -33.60196 -70.64217 14208 ft 378 kts 98°
2026-04-18 09:10 -33.60819 -70.61096 14922 ft 385 kts 101°
2026-04-18 09:10 -33.61424 -70.57964 15612 ft 392 kts 99°
2026-04-18 09:10 -33.62087 -70.54723 16283 ft 401 kts 110°
2026-04-18 09:10 -33.63637 -70.51967 16988 ft 405 kts 134°
2026-04-18 09:11 -33.65611 -70.49508 17759 ft 409 kts 137°
2026-04-18 09:11 -33.67614 -70.47078 18481 ft 414 kts 137°
2026-04-18 09:11 -33.69612 -70.44531 19129 ft 420 kts 136°
2026-04-18 09:11 -33.71584 -70.41953 19752 ft 425 kts 136°
2026-04-18 09:12 -33.73622 -70.39330 20396 ft 430 kts 137°
2026-04-18 09:12 -33.75717 -70.36683 20954 ft 436 kts 137°
2026-04-18 09:12 -33.77794 -70.34027 21655 ft 441 kts 137°
2026-04-18 09:12 -33.79889 -70.31331 22167 ft 448 kts 137°
2026-04-18 09:13 -33.82042 -70.28565 22759 ft 450 kts 139°
2026-04-18 09:13 -33.84172 -70.25828 23318 ft 456 kts 138°
2026-04-18 09:13 -33.86364 -70.23019 23806 ft 462 kts 139°
2026-04-18 09:13 -33.88547 -70.20208 24248 ft 464 kts 138°
2026-04-18 09:14 -33.90772 -70.17344 24758 ft 468 kts 139°
2026-04-18 09:14 -33.93015 -70.14452 25199 ft 473 kts 140°
2026-04-18 09:14 -33.95247 -70.11580 25700 ft 475 kts 139°
2026-04-18 09:14 -33.97534 -70.08628 26075 ft 481 kts 139°
2026-04-18 09:15 -33.99793 -70.05704 26609 ft 482 kts 139°
2026-04-18 09:15 -34.02108 -70.02720 26926 ft 486 kts 140°
2026-04-18 09:15 -34.04402 -69.99750 27351 ft 488 kts 139°
2026-04-18 09:15 -34.06730 -69.96730 27698 ft 490 kts 139°
2026-04-18 09:16 -34.09063 -69.93710 28029 ft 491 kts 139°
2026-04-18 09:16 -34.11318 -69.90520 27968 ft 505 kts 132°
2026-04-18 09:16 -34.13172 -69.86908 28156 ft 515 kts 122°
2026-04-18 09:16 -34.14593 -69.82900 28508 ft 518 kts 112°
2026-04-18 09:17 -34.15509 -69.78724 28799 ft 520 kts 102°
2026-04-18 09:17 -34.15931 -69.74351 28938 ft 524 kts 93°
2026-04-18 09:17 -34.15221 -69.65744 28958 ft 513 kts 73°
2026-04-18 09:18 -34.12536 -69.57861 28944 ft 500 kts 56°
2026-04-18 09:18 -34.09124 -69.50615 28915 ft 496 kts 58°
2026-04-18 09:19 -34.06607 -69.42840 28895 ft 498 kts 71°
2026-04-18 09:19 -34.05654 -69.38867 28726 ft 499 kts 71°
2026-04-18 09:19 -34.04585 -69.34864 28061 ft 510 kts 67°
2026-04-18 09:20 -34.03278 -69.30871 27574 ft 502 kts 65°
2026-04-18 09:20 -34.02016 -69.27004 27164 ft 490 kts 67°
2026-04-18 09:20 -34.00907 -69.23130 26535 ft 486 kts 69°
2026-04-18 09:20 -33.99835 -69.19324 25906 ft 483 kts 68°
2026-04-18 09:21 -33.98672 -69.15535 25270 ft 480 kts 66°
2026-04-18 09:21 -33.97496 -69.11763 24637 ft 478 kts 67°
2026-04-18 09:21 -33.96375 -69.08030 24010 ft 477 kts 68°
2026-04-18 09:21 -33.95258 -69.04259 23368 ft 478 kts 67°
2026-04-18 09:22 -33.94119 -69.00494 22693 ft 477 kts 67°
2026-04-18 09:22 -33.92975 -68.96740 22058 ft 475 kts 67°
2026-04-18 09:22 -33.91694 -68.93140 21430 ft 467 kts 56°
2026-04-18 09:22 -33.89701 -68.90092 20815 ft 454 kts 39°
2026-04-18 09:23 -33.87252 -68.87881 20227 ft 433 kts 22°
2026-04-18 09:23 -33.84565 -68.86533 19658 ft 412 kts
2026-04-18 09:23 -33.81791 -68.85992 19126 ft 394 kts 356°
2026-04-18 09:23 -33.79090 -68.85750 18609 ft 389 kts 356°
2026-04-18 09:24 -33.76416 -68.85516 18099 ft 384 kts 356°
2026-04-18 09:24 -33.73746 -68.85277 17556 ft 379 kts 356°
2026-04-18 09:24 -33.71151 -68.85042 17058 ft 375 kts 357°
2026-04-18 09:24 -33.68553 -68.84801 16558 ft 371 kts 357°
2026-04-18 09:25 -33.65981 -68.84571 16070 ft 368 kts 358°
2026-04-18 09:25 -33.63458 -68.84344 15583 ft 365 kts 358°
2026-04-18 09:25 -33.60920 -68.84114 15103 ft 364 kts 359°
2026-04-18 09:25 -33.58418 -68.83889 14630 ft 363 kts 359°
2026-04-18 09:26 -33.55890 -68.83657 14147 ft 362 kts 359°
2026-04-18 09:26 -33.53392 -68.83434 13669 ft 361 kts 360°
2026-04-18 09:26 -33.50877 -68.83201 13162 ft 359 kts
2026-04-18 09:26 -33.48414 -68.82980 12687 ft 357 kts
2026-04-18 09:27 -33.45927 -68.82751 12214 ft 355 kts
2026-04-18 09:27 -33.43463 -68.82531 11743 ft 350 kts
2026-04-18 09:27 -33.41087 -68.82311 11290 ft 340 kts
2026-04-18 09:27 -33.38762 -68.82102 10847 ft 332 kts
2026-04-18 09:28 -33.36473 -68.81895 10412 ft 325 kts
2026-04-18 09:28 -33.34262 -68.81695 9992 ft 316 kts
2026-04-18 09:28 -33.32100 -68.81500 9563 ft 301 kts
2026-04-18 09:28 -33.30070 -68.81313 9158 ft 288 kts
2026-04-18 09:29 -33.28091 -68.81138 8775 ft 279 kts
2026-04-18 09:29 -33.26170 -68.80961 8413 ft 279 kts
2026-04-18 09:29 -33.24242 -68.80792 8078 ft 278 kts
2026-04-18 09:29 -33.22313 -68.80613 7847 ft 277 kts
2026-04-18 09:30 -33.20374 -68.80441 7493 ft 280 kts
2026-04-18 09:30 -33.18487 -68.80270 7137 ft 263 kts
2026-04-18 09:30 -33.16701 -68.80108 6794 ft 253 kts
2026-04-18 09:30 -33.14978 -68.79955 6469 ft 246 kts
2026-04-18 09:31 -33.13288 -68.79799 6143 ft 244 kts
2026-04-18 09:31 -33.11605 -68.79733 6029 ft 238 kts 359°
2026-04-18 09:31 -33.09970 -68.79718 5993 ft 233 kts
2026-04-18 09:31 -33.08362 -68.79667 5875 ft 231 kts
2026-04-18 09:32 -33.06740 -68.79633 5710 ft 227 kts
2026-04-18 09:32 -33.05234 -68.79615 5528 ft 211 kts
2026-04-18 09:32 -33.03803 -68.79597 5351 ft 198 kts
2026-04-18 09:32 -33.02459 -68.79576 5184 ft 188 kts
2026-04-18 09:33 -33.01186 -68.79557 5020 ft 184 kts
2026-04-18 09:33 -32.99888 -68.79538 4862 ft 187 kts
2026-04-18 09:33 -32.98577 -68.79516 4697 ft 188 kts
2026-04-18 09:33 -32.97275 -68.79498 4534 ft 189 kts
2026-04-18 09:34 -32.95951 -68.79479 4364 ft 184 kts
2026-04-18 09:34 -32.94768 -68.79458 4203 ft 160 kts
2026-04-18 09:34 -32.93740 -68.79446 4085 ft 132 kts
2026-04-18 09:34 -32.92864 -68.79432 3963 ft 122 kts
2026-04-18 09:35 -32.92021 -68.79418 3795 ft 121 kts
2026-04-18 09:35 -32.91190 -68.79409 3634 ft 118 kts
2026-04-18 09:35 -32.90364 -68.79395 3482 ft 118 kts
2026-04-18 09:35 -32.89545 -68.79379 3326 ft 118 kts
2026-04-18 09:36 -32.88733 -68.79371 3171 ft 117 kts
2026-04-18 09:36 -32.87913 -68.79360 3019 ft 118 kts 360°
2026-04-18 09:36 -32.87098 -68.79342 2859 ft 118 kts
2026-04-18 09:36 -32.86280 -68.79341 2704 ft 117 kts
2026-04-18 09:37 -32.85472 -68.79322 2533 ft 114 kts 360°
2026-04-18 09:37 -32.84706 -68.79313 2406 ft 110 kts
2026-04-18 09:37 -32.83965 -68.79301 2310 ft 97 kts
2026-04-18 09:37 -32.83415 -68.79294 2302 ft 54 kts
2026-04-18 09:38 -32.83071 -68.79288 2308 ft 46 kts
2026-04-18 09:38 -32.82768 -68.79282 2302 ft 42 kts
2026-04-18 09:38 -32.82550 -68.79297 2303 ft 19 kts 313°
2026-04-18 09:38 -32.82576 -68.79423 2299 ft 16 kts 225°
2026-04-18 09:39 -32.82652 -68.79515 2299 ft 16 kts 238°
2026-04-18 09:39 -32.82678 -68.79637 2305 ft 12 kts 248°
2026-04-18 09:39 -32.82743 -68.79700 2299 ft 13 kts 203°
2026-04-18 09:39 -32.82834 -68.79709 2302 ft 13 kts 178°
2026-04-18 09:40 -32.82909 -68.79748 2307 ft 12 kts 234°
2026-04-18 09:40 -32.82917 -68.79787 2301 ft 2 kts 274°
2026-04-18 09:40 -32.82917 -68.79788 2301 ft 0 kts 274°